User: anonymous   Login
Location: Unspecified
(0.0000°N, 0.0000°E)
Time: 08:05:53
(UTC+00:00)
Language:

NTS 1 - Orbit

View from above orbital plane
View from above orbital plane
View from above satellite
View from above satellite

Ground track
Ground track

The orbit data is extracted from the following two-line orbital elements,

1  7369U 74054A   19344.29577287  .00000108  00000-0  00000+0 0  9991
2  7369 125.1599 350.0735 0073681 293.3608  68.5093  3.07214839509549
Epoch (UTC): 10 December 2019 07:05:54
Eccentricity: 0.0073681
inclination: 125.1599°
perigee height: 13462 km
apogee height: 13757 km
right ascension of ascending node: 350.0735°
argument of perigee: 293.3608°
revolutions per day: 3.07214839
mean anomaly at epoch: 68.5093°
orbit number at epoch: 50954

The dashed part of the orbit path shows where the satellite is in the earth's shadow,  

DLR